class="custom-background group-blog header-image full-width wpb-js-composer js-comp-ver-5.2.1 vc_responsive"
  • Currently

    Reported at York, York Municipal Airport, NE
    3:15 PM CST MON AUG 21 2017
  • 84°F29°C
  • Clear
    Clear
  • Feels Like:90°F32°CDew Point:72°F22°CHumidity:66% Winds:SSE 15 mph G 2024 kph G 32Pressure:29.94 in1014 hPaVisibility:10.00 miles16090.00 meters
Time Weather Temp Dew Point
Humidity Winds Visibility Pressure Precipitation
1 hr 24 hr
Monday, August 21
16:15 16:15 Sunny Sunny 84°F29°C 72°F22°C 66% SSW 15 mphSSW 24 kph 10.0 miles16.1 km 29.94 in1014 hPa 0.00 in0.00 mm --
15:55 15:55 Sunny Sunny 84°F29°C 72°F22°C 66% S 15 mphS 24 kph 10.0 miles16.1 km 29.94 in1014 hPa 0.00 in0.00 mm --
15:35 15:35 Sunny Sunny 84°F29°C 72°F22°C 66% SSW 16 mphSSW 26 kph 10.0 miles16.1 km 29.94 in1014 hPa 0.00 in0.00 mm --
15:15 15:15 Sunny Sunny 84°F29°C 72°F22°C 66% S 12 mphS 19 kph 9.0 miles14.5 km 29.94 in1014 hPa 0.00 in0.00 mm --
14:55 14:55 Sunny Sunny 82°F28°C 72°F22°C 70% S 12 mphS 19 kph 10.0 miles16.1 km 29.94 in1014 hPa 0.00 in0.00 mm --
14:35 14:35 Sunny Sunny 82°F28°C 72°F22°C 70% SSW 12 mphSSW 19 kph 10.0 miles16.1 km 29.94 in1014 hPa 0.00 in0.00 mm --
14:15 14:15 Sunny Sunny 81°F27°C 72°F22°C 74% S 9 mphS 15 kph 10.0 miles16.1 km 29.94 in1014 hPa 0.00 in0.00 mm --
13:55 13:55 Sunny Sunny 79°F26°C 70°F21°C 74% S 12 mphS 19 kph 10.0 miles16.1 km 29.94 in1014 hPa 0.00 in0.00 mm --
13:35 13:35 Sunny Sunny 77°F25°C 70°F21°C 79% S 13 mphS 20 kph 10.0 miles16.1 km 29.94 in1014 hPa 0.00 in0.00 mm --
13:15 13:15 Sunny Sunny 77°F25°C 72°F22°C 83% S 6 mphS 9 kph 10.0 miles16.1 km 29.94 in1014 hPa 0.00 in0.00 mm --
12:55 12:55 Sunny Sunny 77°F25°C 73°F23°C 89% SSE 7 mphSSE 11 kph 10.0 miles16.1 km 29.94 in1014 hPa 0.00 in0.00 mm --
12:35 12:35 Sunny Sunny 77°F25°C 73°F23°C 89% SSE 9 mphSSE 15 kph 10.0 miles16.1 km 29.94 in1014 hPa 0.00 in0.00 mm --
12:15 12:15 Sunny Sunny 77°F25°C 72°F22°C 83% SSE 14 mphSSE 22 kph 10.0 miles16.1 km 29.94 in1014 hPa 0.00 in0.00 mm --
11:55 11:55 Sunny Sunny 77°F25°C 73°F23°C 89% SSE 12 mphSSE 19 kph 10.0 miles16.1 km 29.97 in1015 hPa 0.00 in0.00 mm --
11:35 11:35 Sunny Sunny 77°F25°C 72°F22°C 83% SSE 14 mphSSE 22 kph 10.0 miles16.1 km 29.97 in1015 hPa 0.00 in0.00 mm --
11:15 11:15 Sunny Sunny 77°F25°C 72°F22°C 83% SSE 9 mphSSE 15 kph 10.0 miles16.1 km 29.97 in1015 hPa 0.00 in0.00 mm --
10:55 10:55 Sunny Sunny 79°F26°C 72°F22°C 79% SSE 12 mphSSE 19 kph 9.0 miles14.5 km 29.97 in1015 hPa 0.00 in0.00 mm --
10:35 10:35 Sunny Sunny 77°F25°C 72°F22°C 83% SSE 12 mphSSE 19 kph 10.0 miles16.1 km 29.97 in1015 hPa 0.00 in0.00 mm --
10:15 10:15 Sunny Sunny 75°F24°C 72°F22°C 89% SE 12 mphSE 19 kph 10.0 miles16.1 km 29.97 in1015 hPa 0.00 in0.00 mm --
09:55 09:55 Sunny Sunny 75°F24°C 72°F22°C 89% SE 14 mphSE 22 kph 10.0 miles16.1 km 30 in1016 hPa 0.00 in0.00 mm --
09:35 09:35 Sunny Sunny 73°F23°C 70°F21°C 89% ESE 13 mphESE 20 kph 10.0 miles16.1 km 30 in1016 hPa 0.00 in0.00 mm --
09:15 09:15 Sunny Sunny 73°F23°C 70°F21°C 89% SE 9 mphSE 15 kph 10.0 miles16.1 km 30 in1016 hPa 0.00 in0.00 mm --
08:55 08:55 Sunny Sunny 73°F23°C 70°F21°C 89% ESE 14 mphESE 22 kph 10.0 miles16.1 km 30 in1016 hPa 0.00 in0.00 mm --
08:35 08:35 Sunny Sunny 72°F22°C 70°F21°C 94% ESE 10 mphESE 17 kph 10.0 miles16.1 km 30 in1016 hPa 0.00 in0.00 mm --
08:15 08:15 Sunny Sunny 73°F23°C 72°F22°C 94% E 12 mphE 19 kph 10.0 miles16.1 km 30 in1016 hPa 0.00 in0.00 mm --
07:55 07:55 Partly Cloudy Partly Cloudy 73°F23°C 72°F22°C 94% ESE 5 mphESE 7 kph 10.0 miles16.1 km 30 in1016 hPa 0.00 in0.00 mm --
07:35 07:35 Mostly Cloudy Mostly Cloudy 73°F23°C 72°F22°C 94% SE 9 mphSE 15 kph 10.0 miles16.1 km 29.97 in1015 hPa 0.00 in0.00 mm --
07:15 07:15 Mostly Cloudy Mostly Cloudy 72°F22°C 70°F21°C 94% ESE 5 mphESE 7 kph 10.0 miles16.1 km 29.97 in1015 hPa 0.00 in0.00 mm --
06:55 06:55 Partly Cloudy Partly Cloudy 72°F22°C 70°F21°C 94% ENE 9 mphENE 15 kph 9.0 miles14.5 km 29.97 in1015 hPa 0.00 in0.00 mm --
06:35 06:35 Clear Clear 72°F22°C 70°F21°C 94% S 7 mphS 11 kph 10.0 miles16.1 km 29.97 in1015 hPa 0.00 in0.00 mm --
06:15 06:15 Clear Clear 72°F22°C 70°F21°C 94% CalmCalm 10.0 miles16.1 km 29.97 in1015 hPa 0.00 in0.00 mm --
05:55 05:55 Clear Clear 72°F22°C 70°F21°C 94% CalmCalm 10.0 miles16.1 km 29.97 in1015 hPa 0.00 in0.00 mm --
05:35 05:35 Clear Clear 72°F22°C 70°F21°C 94% S 7 mphS 11 kph 10.0 miles16.1 km 29.94 in1014 hPa 0.00 in0.00 mm --
05:15 05:15 Clear Clear 72°F22°C 70°F21°C 94% S 7 mphS 11 kph 10.0 miles16.1 km 29.94 in1014 hPa 0.00 in0.00 mm --
04:55 04:55 Clear Clear 73°F23°C 70°F21°C 89% SSW 7 mphSSW 11 kph 10.0 miles16.1 km 29.94 in1014 hPa 0.00 in0.00 mm --
04:35 04:35 Clear Clear 73°F23°C 70°F21°C 89% SSW 5 mphSSW 7 kph 10.0 miles16.1 km 29.91 in1013 hPa 0.00 in0.00 mm --
04:15 04:15 Clear Clear 73°F23°C 70°F21°C 89% SSW 9 mphSSW 15 kph 10.0 miles16.1 km 29.91 in1013 hPa 0.00 in0.00 mm --
03:55 03:55 Clear Clear 73°F23°C 70°F21°C 89% SSW 7 mphSSW 11 kph 10.0 miles16.1 km 29.91 in1013 hPa 0.00 in0.00 mm --
03:35 03:35 Clear Clear 75°F24°C 72°F22°C 89% SSW 9 mphSSW 15 kph 10.0 miles16.1 km 29.91 in1013 hPa 0.00 in0.00 mm --
03:15 03:15 Clear Clear 75°F24°C 72°F22°C 89% SSW 9 mphSSW 15 kph 10.0 miles16.1 km 29.91 in1013 hPa 0.00 in0.00 mm --
02:55 02:55 Clear Clear 75°F24°C 72°F22°C 89% SSW 10 mphSSW 17 kph 10.0 miles16.1 km 29.91 in1013 hPa 0.00 in0.00 mm --
02:35 02:35 Clear Clear 75°F24°C 72°F22°C 89% SSW 10 mphSSW 17 kph 10.0 miles16.1 km 29.91 in1013 hPa 0.00 in0.00 mm --
02:15 02:15 Clear Clear 77°F25°C 72°F22°C 83% S 12 mphS 19 kph 10.0 miles16.1 km 29.91 in1013 hPa 0.00 in0.00 mm --
01:55 01:55 Clear Clear 77°F25°C 73°F23°C 89% S 12 mphS 19 kph 10.0 miles16.1 km 29.94 in1014 hPa 0.00 in0.00 mm --
01:35 01:35 Clear Clear 77°F25°C 73°F23°C 89% S 9 mphS 15 kph 10.0 miles16.1 km 29.94 in1014 hPa 0.00 in0.00 mm --
01:15 01:15 Clear Clear 75°F24°C 73°F23°C 94% S 9 mphS 15 kph 10.0 miles16.1 km 29.94 in1014 hPa 0.00 in0.00 mm --
00:55 00:55 Clear Clear 75°F24°C 73°F23°C 94% SSE 8 mphSSE 13 kph 10.0 miles16.1 km 29.94 in1014 hPa 0.00 in0.00 mm --
00:35 00:35 Clear Clear 75°F24°C 73°F23°C 94% SSE 6 mphSSE 9 kph 10.0 miles16.1 km 29.94 in1014 hPa 0.00 in0.00 mm --
00:15 00:15 Clear Clear 75°F24°C 73°F23°C 94% SE 7 mphSE 11 kph 10.0 miles16.1 km 29.94 in1014 hPa 0.00 in0.00 mm --